Flag for China Weather past 2 weeks in Shantou, Guangdong, China

Now
79 °F

Clear.


Feels Like: 83 °F
Forecast: 79 / 93 °F
Wind: 1 mph from Southwest

Location: Shantou Airport

Current Time: Sep 18, 2014 at 7:40:42 AM

Latest Report: Sep 18, 2014 at 7:00 AM


Visibility: 4 mi

Pressure: 29.92 "Hg

Humidity: 94%

Dew point: 77 °F

Location of ShantouLocation

Historic Weather in Shantou — Graph

°F

Shantou temperature yesterday

Maximum temperature yesterday: 90 °F (at 12:00 PM)
Minimum temperature yesterday: 81 °F (at 3:00 AM)
Average temperature yesterday: 84 °F

Past Weeks' High & Low Weather Summary

 TemperatureHumidityPressure
High99 °F (Sep 3, 1:00 PM)100% (Sep 10, 2:00 AM)29.98 "Hg (Sep 10, 2:00 AM)
Low77 °F (Sep 6, 4:00 AM)42% (Sep 3, 2:00 PM)29.59 "Hg (Sep 15, 2:00 PM)
Average85 °F79%29.77 "Hg
* Reported Sep 3 6:00 AM — Sep 18 6:00 AM, Shantou, Weather by CustomWeather, © 2014

Note: Actual official high and low records may vary slightly from our data, if they occured in-between our weather recording intervals... More about our weather records

Advertising

Shantou weather history for previous 24 hours

 ConditionsComfort  
Time TempWeatherWind HumidityBarometerVisibility
6:00 AM
Sep 18
77 °FFog.No wind94%29.92 "Hg2 mi
5:00 AM77 °FFog.No wind100%29.92 "Hg3 mi
4:00 AM77 °FFog.No wind100%29.92 "Hg2 mi
3:00 AM77 °FFog.No wind100%29.92 "Hg3 mi
2:00 AM79 °FClear.No wind94%29.92 "Hg4 mi
1:00 AM79 °FClear.1 mph94%29.95 "Hg4 mi
12:00 AM79 °FClear.1 mph94%29.95 "Hg4 mi
11:00 PM
Sep 17
81 °FClear.1 mph94%29.98 "Hg10 mi
10:00 PM81 °FPassing clouds.No wind94%29.98 "HgN/A
9:00 PM82 °FPassing clouds.1 mph84%29.98 "HgN/A
8:00 PM82 °FPassing clouds.1 mph84%29.95 "HgN/A
7:00 PM84 °FPassing clouds.3 mph74%29.92 "HgN/A
6:00 PM86 °FScattered clouds.6 mph75%29.92 "HgN/A
5:00 PM88 °FPassing clouds.8 mph66%29.89 "HgN/A
4:00 PM90 °FPassing clouds.10 mph67%29.89 "HgN/A
3:00 PM90 °FScattered clouds.8 mph67%29.89 "HgN/A
2:00 PM90 °FScattered clouds.10 mph67%29.89 "HgN/A
1:00 PM90 °FScattered clouds.10 mph67%29.92 "HgN/A
12:00 PM90 °FScattered clouds.10 mph67%29.92 "HgN/A
11:00 AM88 °FScattered clouds.8 mph75%29.95 "HgN/A
10:00 AM86 °FScattered clouds.8 mph79%29.95 "HgN/A
9:00 AM84 °FBroken clouds.3 mph84%29.95 "HgN/A
8:00 AM81 °FRain showers. Broken clouds.1 mph94%29.92 "Hg2 mi
7:00 AM81 °FScattered clouds.3 mph94%29.92 "HgN/A
Weather by CustomWeather, © 2014

See weather overviewHow to use our weather pages